FW1251 Weather Reports


time (UTC)temp
C
wind
direction
speed
KPH
gust
KPH
rain 1hr
cm
rain 24hr
cm
rain mn
cm
humidity
%
barometer
mb
20260510203101 28 160 1.6 4.8 0.00 0.08 0.05 83 1017.2
20260510201600 28 236 0.0 4.8 0.00 0.08 0.05 81 1017.2
20260510200101 28 172 1.6 6.4 0.00 0.08 0.05 82 1017.2
20260510194607 28 177 1.6 8.0 0.00 0.08 0.05 83 1017.1
20260510193056 27 182 1.6 6.4 0.00 0.08 0.05 82 1017.3
20260510191609 28 163 0.0 6.4 0.03 0.08 0.05 84 1017.5
20260510190101 27 42 0.0 6.4 0.03 0.08 0.05 82 1017.6
20260510184554 27 286 0.0 4.8 0.03 0.08 0.05 83 1017.7
20260510183053 27 348 0.0 6.4 0.03 0.08 0.05 84 1017.9
20260510181554 28 340 1.6 6.4 0.00 0.05 0.03 83 1018.1
20260510180103 27 94 1.6 9.7 0.00 0.05 0.03 83 1018.4
20260510174547 27 5 1.6 6.4 0.00 0.05 0.03 85 1018.5
20260510173045 26 198 1.6 8.0 0.00 0.05 0.03 86 1018.6
20260510171543 26 144 0.0 8.0 0.00 0.05 0.03 88 1018.7
20260510170042 26 36 3.2 6.4 0.00 0.05 0.03 88 1019.0
20260510164539 25 186 1.6 6.4 0.00 0.05 0.03 89 1018.9
20260510163043 25 20 1.6 8.0 0.00 0.05 0.03 89 1018.9
20260510161533 24 360 1.6 9.7 0.00 0.05 0.03 90 1019.1
20260510160033 23 131 1.6 8.0 0.00 0.05 0.03 91 1019.2
20260510154524 23 82 0.0 8.0 0.00 0.05 0.03 92 1019.1
20260510153019 22 30 1.6 4.8 0.00 0.05 0.03 94 1019.2
20260510151518 22 192 1.6 4.8 0.00 0.05 0.03 96 1019.0
20260510150014 21 271 3.2 9.7 0.00 0.05 0.03 96 1019.1
20260510144514 21 360 1.6 4.8 0.00 0.05 0.03 96 1019.2
20260510143016 20 193 1.6 4.8 0.00 0.05 0.03 96 1019.4
20260510141512 20 172 0.0 4.8 0.00 0.05 0.03 96 1019.4
20260510140006 20 360 1.6 6.4 0.00 0.05 0.03 96 1019.2
20260510134504 20 360 0.0 6.4 0.00 0.05 0.03 96 1019.0
20260510133003 20 360 0.0 3.2 0.00 0.05 0.03 96 1019.1
20260510131500 19 360 0.0 3.2 0.00 0.05 0.03 96 1018.8
20260510124558 18 178 0.0 1.6 0.00 0.05 0.03 96 1018.7
20260510123056 18 200 1.6 4.8 0.03 0.05 0.03 96 1018.2
20260510121555 18 355 0.0 1.6 0.03 0.05 0.03 96 1018.3
20260510120053 18 304 0.0 1.6 0.03 0.05 0.03 96 1018.1
20260510114550 18 188 0.0 3.2 0.03 0.05 0.03 96 1017.6
20260510113049 17 192 0.0 3.2 0.00 0.03 0.00 96 1017.2
20260510111554 17 172 0.0 1.6 0.00 0.03 0.00 96 1016.9
20260510110051 17 172 0.0 0.0 0.00 0.03 0.00 96 1016.6
20260510104550 17 172 0.0 3.2 0.00 0.03 0.00 96 1016.3
20260510103048 17 21 0.0 1.6 0.00 0.03 0.00 96 1016.0
20260510101541 17 21 0.0 1.6 0.00 0.03 0.00 96 1016.0
20260510100040 18 21 0.0 1.6 0.00 0.03 0.00 96 1015.8
20260510094538 18 21 0.0 1.6 0.00 0.05 0.00 96 1015.7
20260510093043 18 21 0.0 3.2 0.00 0.05 0.00 96 1015.8
20260510091537 18 21 0.0 3.2 0.00 0.05 0.00 96 1015.9
20260510090037 18 20 0.0 4.8 0.00 0.05 0.00 96 1016.0
20260510084536 18 341 0.0 3.2 0.00 0.05 0.00 96 1015.9
20260510083039 18 341 0.0 1.6 0.00 0.05 0.00 96 1015.7
20260510081541 18 341 0.0 4.8 0.00 0.05 0.00 96 1015.7
20260510080033 18 157 0.0 1.6 0.00 0.05 0.00 96 1015.5
20260510074532 18 157 0.0 1.6 0.00 0.05 0.00 96 1015.2
20260510073037 18 157 0.0 3.2 0.00 0.05 0.00 96 1015.2
20260510071530 18 157 0.0 0.0 0.00 0.05 0.00 96 1015.4
20260510070029 18 157 0.0 3.2 0.00 0.05 0.00 96 1015.4
20260510064542 19 126 0.0 1.6 0.00 0.05 0.00 96 1015.7
20260510063038 19 215 1.6 3.2 0.00 0.05 0.00 96 1015.5
20260510061532 19 40 0.0 3.2 0.00 0.05 0.00 96 1015.5
20260510060038 19 42 0.0 3.2 0.00 0.05 0.00 96 1015.7
20260510054526 19 251 0.0 1.6 0.00 0.05 0.00 96 1015.6
20260510053036 19 222 0.0 1.6 0.00 0.05 0.00 96 1015.9
20260510051524 19 222 0.0 1.6 0.00 0.05 0.00 96 1015.8
20260510050019 19 222 0.0 1.6 0.00 0.05 0.05 96 1015.8
20260510044539 19 222 0.0 1.6 0.00 0.05 0.05 96 1015.4
20260510043018 19 312 0.0 3.2 0.00 0.05 0.05 96 1015.1
20260510041517 19 227 1.6 3.2 0.00 0.05 0.05 96 1014.8
20260510040030 20 346 0.0 1.6 0.00 0.05 0.05 96 1015.7
20260510034517 20 347 0.0 0.0 0.00 0.05 0.05 96 1016.4
20260510033015 20 346 0.0 3.2 0.00 0.05 0.05 96 1016.5
20260510031515 20 346 0.0 1.6 0.00 0.05 0.05 96 1016.2
20260510030016 20 346 0.0 0.0 0.00 0.05 0.05 96 1016.2
20260510024514 20 346 0.0 1.6 0.00 0.05 0.05 96 1016.1
20260510023013 20 346 0.0 3.2 0.00 0.05 0.05 96 1016.2
20260510021514 20 342 1.6 4.8 0.00 0.05 0.05 96 1015.4
20260510020019 20 26 3.2 8.0 0.00 0.05 0.05 96 1015.2
20260510014512 20 180 0.0 8.0 0.00 0.05 0.05 96 1014.6
20260510013011 19 44 0.0 4.8 0.00 0.05 0.05 96 1014.9
20260510011515 19 235 0.0 4.8 0.00 0.05 0.05 96 1014.0
20260510010010 19 341 0.0 1.6 0.03 0.05 0.05 96 1014.4
20260510004510 19 341 0.0 3.2 0.03 0.05 0.05 96 1014.9
20260510003010 20 341 0.0 3.2 0.03 0.05 0.05 96 1014.8
20260510001509 20 10 0.0 1.6 0.03 0.05 0.05 95 1014.7
20260510000016 20 155 0.0 1.6 0.00 0.03 0.03 96 1014.9
20260509234511 20 155 0.0 1.6 0.00 0.03 0.03 96 1015.0
20260509233009 20 95 0.0 1.6 0.00 0.03 0.03 96 1015.4
20260509231507 20 95 0.0 1.6 0.00 0.03 0.03 96 1014.9
20260509230016 20 83 0.0 1.6 0.00 0.03 0.03 96 1014.2
20260509224506 20 134 0.0 1.6 0.00 0.03 0.03 96 1014.1
20260509223009 20 141 0.0 4.8 0.00 0.03 0.03 96 1014.9
20260509221506 20 190 0.0 6.4 0.00 0.03 0.03 95 1014.4
20260509220005 20 163 0.0 3.2 0.00 0.03 0.03 96 1014.4
20260509214505 20 148 0.0 1.6 0.00 0.03 0.03 96 1013.6
20260509213004 20 148 0.0 3.2 0.00 0.03 0.03 95 1013.3
20260509211504 20 28 0.0 3.2 0.00 0.03 0.03 96 1013.4
20260509210010 20 157 0.0 6.4 0.00 0.03 0.03 96 1013.1
20260509204503 20 196 0.0 4.8 0.00 0.03 0.03 96 1012.9